KC9VAF Weather Reports


Display with metric or nautical units.
time (UTC)temp
F
wind
direction
speed
MPH
gust
MPH
rain 1hr
in
rain 24hr
in
rain mn
in
humidity
%
barometer
mb
20260831141850 74 58 0.0 1.0 0.00 0.29 0.29 86 1014.2
20260831141344 73 148 3.0 3.0 0.00 0.29 0.29 86 1014.3
20260831140839 73 67 2.0 2.0 0.00 0.29 0.29 87 1014.4
20260831140334 73 150 2.0 3.0 0.00 0.29 0.29 86 1014.1
20260831135832 73 173 5.0 8.0 0.00 0.29 0.29 87 1014.4
20260831135328 72 172 3.0 5.0 0.00 0.29 0.29 87 1014.5
20260831134823 72 195 5.0 7.0 0.00 0.29 0.29 87 1014.2
20260831134320 72 140 3.0 3.0 0.00 0.29 0.29 88 1014.4
20260831133819 72 148 0.0 1.0 0.00 0.29 0.29 89 1014.5
20260831133318 72 80 3.0 3.0 0.00 0.29 0.29 88 1014.2
20260831132814 71 96 1.0 1.0 0.00 0.29 0.29 89 1014.2
20260831132309 72 166 3.0 6.0 0.00 0.29 0.29 89 1014.3
20260831131803 71 75 1.0 2.0 0.00 0.29 0.29 89 1014.4
20260831131259 71 105 2.0 5.0 0.00 0.29 0.29 90 1014.0
20260831130754 71 92 3.0 3.0 0.00 0.29 0.29 90 1014.1
20260831130249 71 132 1.0 2.0 0.00 0.29 0.29 90 1014.2
20260831125748 71 102 2.0 3.0 0.00 0.29 0.29 91 1014.0
20260831125244 70 170 3.0 3.0 0.07 0.29 0.29 91 1014.2
20260831124738 70 104 3.0 6.0 0.07 0.29 0.29 92 1014.3
20260831124235 70 86 3.0 6.0 0.00 0.28 0.28 92 1014.5
20260831123734 70 77 1.0 1.0 0.00 0.28 0.28 92 1014.2
20260831123233 70 187 5.0 8.0 0.00 0.28 0.28 92 1014.3
20260831122728 70 224 5.0 7.0 0.00 0.28 0.28 93 1014.3
20260831122224 70 87 0.0 0.0 0.00 0.28 0.28 94 1014.4
20260831121723 70 91 0.0 1.0 0.00 0.28 0.28 94 1014.0
20260831121220 70 87 1.0 1.0 0.00 0.28 0.28 94 1014.1
20260831120715 69 95 0.0 1.0 0.00 0.28 0.28 95 1014.2
20260831120209 69 78 1.0 1.0 0.00 0.28 0.28 95 1014.4
20260831115705 69 90 1.0 1.0 0.07 0.28 0.28 95 1014.6
20260831115201 69 165 3.0 5.0 0.12 0.28 0.28 95 1014.3
20260831114700 69 96 0.0 1.0 0.05 0.27 0.27 95 1014.4
20260831114159 69 110 0.0 0.0 0.12 0.26 0.26 95 1014.4
20260831113655 69 102 0.0 1.0 0.12 0.26 0.26 96 1014.5
20260831113150 69 100 2.0 2.0 0.00 0.24 0.24 96 1014.8
20260831112649 69 90 0.0 1.0 0.00 0.24 0.24 96 1014.3
20260831112144 69 102 1.0 1.0 0.00 0.24 0.24 96 1014.5
20260831111640 69 96 1.0 1.0 0.00 0.24 0.24 97 1014.3
20260831111136 69 170 1.0 2.0 0.00 0.24 0.24 97 1014.6
20260831110631 69 85 0.0 0.0 0.07 0.24 0.24 97 1014.5
20260831110126 69 103 1.0 1.0 0.19 0.24 0.24 97 1014.5
20260831105625 69 93 1.0 2.0 0.24 0.23 0.23 97 1014.7
20260831105120 69 132 0.0 1.0 0.12 0.21 0.21 97 1014.7
20260831104616 69 88 0.0 0.0 0.05 0.19 0.19 97 1014.9
20260831104112 69 136 1.0 1.0 0.00 0.18 0.18 97 1015.1
20260831103607 70 113 1.0 1.0 0.00 0.18 0.18 96 1015.2
20260831103103 70 73 0.0 0.0 0.19 0.18 0.18 96 1015.3
20260831102603 70 44 1.0 1.0 0.19 0.18 0.18 96 1015.4
20260831102058 70 78 0.0 0.0 0.19 0.15 0.15 95 1015.9
20260831101557 70 93 0.0 0.0 0.47 0.15 0.15 95 1015.4
20260831101054 70 39 1.0 1.0 0.61 0.13 0.13 94 1015.9
20260831100549 70 92 1.0 1.0 0.42 0.07 0.07 94 1015.3
20260831100045 71 105 0.0 0.0 0.17 0.03 0.03 93 1015.3
20260831095543 71 101 0.0 0.0 0.00 0.00 0.00 92 1015.3
20260831095039 71 50 0.0 0.0 0.00 0.00 0.00 91 1014.9
20260831094535 71 67 0.0 0.0 0.00 0.00 0.00 91 1014.5
20260831094030 70 80 0.0 0.0 0.00 0.00 0.00 92 1014.4
20260831093525 70 82 0.0 0.0 0.00 0.00 0.00 92 1014.3
20260831093022 70 77 0.0 1.0 0.00 0.00 0.00 92 1014.5
20260831092517 70 84 0.0 0.0 0.00 0.00 0.00 93 1014.4
20260831092013 70 81 0.0 0.0 0.00 0.00 0.00 93 1014.5
20260831091507 70 82 0.0 0.0 0.00 0.00 0.00 93 1014.5
20260831091003 70 86 0.0 0.0 0.00 0.00 0.00 94 1014.6
20260831090458 70 82 0.0 0.0 0.00 0.00 0.00 94 1014.7
20260831085954 70 70 0.0 0.0 0.00 0.00 0.00 94 1014.9
20260831085449 69 77 0.0 1.0 0.00 0.00 0.00 94 1014.7
20260831084949 70 78 0.0 0.0 0.00 0.00 0.00 94 1014.8
20260831084445 70 76 0.0 0.0 0.00 0.00 0.00 94 1014.8
20260831083942 70 81 0.0 0.0 0.00 0.00 0.00 93 1014.7
20260831083436 70 82 0.0 0.0 0.00 0.00 0.00 94 1014.3
20260831082935 70 90 1.0 1.0 0.00 0.00 0.00 94 1014.4
20260831082430 70 82 0.0 0.0 0.00 0.00 0.00 94 1014.6
20260831081925 70 83 0.0 0.0 0.00 0.00 0.00 94 1014.6
20260831081421 69 78 0.0 0.0 0.00 0.00 0.00 95 1014.7
20260831080917 69 82 0.0 0.0 0.00 0.00 0.00 95 1014.5
20260831080412 69 79 0.0 0.0 0.00 0.00 0.00 95 1014.6
20260831075907 69 80 0.0 0.0 0.00 0.00 0.00 95 1014.9
20260831075402 69 81 0.0 0.0 0.00 0.00 0.00 95 1014.9
20260831074857 69 80 0.0 0.0 0.00 0.00 0.00 95 1014.9
20260831074356 69 77 0.0 0.0 0.00 0.00 0.00 95 1015.0
20260831073852 69 74 0.0 0.0 0.00 0.00 0.00 95 1015.2
20260831073351 70 77 0.0 0.0 0.00 0.00 0.00 95 1015.2
20260831072846 70 82 1.0 1.0 0.00 0.00 0.00 95 1015.2
20260831072342 70 78 0.0 0.0 0.00 0.00 0.00 95 1015.2
20260831071838 70 77 0.0 0.0 0.00 0.00 0.00 95 1015.7
20260831071336 70 77 0.0 0.0 0.00 0.00 0.00 95 1015.6
20260831070832 70 75 0.0 0.0 0.00 0.00 0.00 95 1015.9
20260831070331 71 76 0.0 0.0 0.00 0.00 0.00 94 1015.8
20260831065830 71 74 0.0 0.0 0.00 0.00 0.00 95 1015.7
20260831065328 71 70 0.0 0.0 0.00 0.00 0.00 95 1015.9
20260831064823 71 68 0.0 0.0 0.00 0.00 0.00 95 1015.9
20260831064319 71 69 0.0 0.0 0.00 0.00 0.00 95 1015.9
20260831063815 71 69 0.0 0.0 0.00 0.00 0.00 95 1015.9
20260831063309 71 69 0.0 0.0 0.00 0.00 0.00 95 1016.0
20260831062809 71 69 0.0 0.0 0.00 0.00 0.00 95 1016.1
20260831062306 71 53 1.0 1.0 0.00 0.00 0.00 94 1015.9
20260831061803 71 75 0.0 0.0 0.00 0.00 0.00 94 1015.9
20260831061257 71 76 0.0 0.0 0.00 0.00 0.00 94 1015.8
20260831060754 71 81 0.0 0.0 0.00 0.00 0.00 94 1016.0
20260831060253 71 77 0.0 0.0 0.00 0.00 0.00 93 1015.8
20260831055753 71 77 0.0 0.0 0.00 0.00 0.00 93 1016.0
20260831055248 71 76 0.0 0.0 0.00 0.00 0.00 93 1016.0
20260831054742 71 73 0.0 0.0 0.00 0.00 0.00 93 1016.0
20260831054232 71 69 0.0 0.0 0.00 0.00 0.00 93 1015.9
20260831053731 71 65 0.0 0.0 0.00 0.00 0.00 93 1015.9
20260831053230 72 65 0.0 0.0 0.00 0.00 0.00 92 1015.9
20260831052729 72 64 0.0 0.0 0.00 0.00 0.00 92 1015.8
20260831052223 72 75 0.0 0.0 0.00 0.00 0.00 91 1015.8
20260831051722 72 67 0.0 0.0 0.00 0.00 0.00 91 1015.8
20260831051220 72 68 0.0 0.0 0.00 0.00 0.00 91 1015.7
20260831050715 72 68 0.0 0.0 0.00 0.00 0.00 90 1015.7
20260831050214 72 54 1.0 1.0 0.00 0.00 0.00 90 1015.8
20260831045709 72 29 3.0 3.0 0.00 0.45 0.45 91 1015.9
20260831045204 72 77 0.0 0.0 0.00 0.45 0.45 91 1016.1
20260831044659 72 76 0.0 0.0 0.00 0.45 0.45 91 1015.9
20260831044154 72 79 0.0 0.0 0.00 0.45 0.45 90 1015.9
20260831043649 72 72 0.0 0.0 0.00 0.45 0.45 90 1015.9
20260831043145 72 71 1.0 1.0 0.00 0.45 0.45 90 1015.4
20260831042643 72 238 1.0 2.0 0.00 0.45 0.45 90 1015.6
20260831042138 72 95 1.0 1.0 0.00 0.45 0.45 90 1015.2
20260831041632 72 86 0.0 0.0 0.00 0.45 0.45 90 1015.3
20260831041127 72 81 0.0 1.0 0.00 0.45 0.45 90 1015.3
20260831040622 72 40 1.0 1.0 0.00 0.45 0.45 90 1015.2
20260831040121 73 225 3.0 3.0 0.00 0.45 0.45 89 1015.2
20260831035620 73 112 1.0 1.0 0.00 0.45 0.45 89 1014.9
20260831035114 72 146 2.0 2.0 0.00 0.45 0.45 90 1014.9
20260831034614 72 98 1.0 2.0 0.00 0.45 0.45 90 1015.0
20260831034109 72 94 1.0 1.0 0.00 0.45 0.45 90 1015.0
20260831033605 72 43 1.0 1.0 0.00 0.45 0.45 90 1014.8
20260831033100 72 132 4.0 6.0 0.00 0.45 0.45 90 1014.6
20260831032559 72 80 0.0 1.0 0.00 0.45 0.45 90 1014.9
20260831032055 72 176 4.0 5.0 0.00 0.45 0.45 91 1015.1
20260831031555 72 133 1.0 1.0 0.00 0.45 0.45 90 1015.2
20260831031054 72 153 0.0 0.0 0.00 0.45 0.45 91 1015.4
20260831030553 72 140 1.0 2.0 0.00 0.45 0.45 90 1015.9
20260831030052 72 74 1.0 1.0 0.00 0.45 0.45 90 1015.6
20260831025551 72 111 0.0 1.0 0.00 0.45 0.45 90 1015.8
20260831025046 72 184 1.0 2.0 0.00 0.45 0.45 90 1016.0
20260831024542 72 156 1.0 3.0 0.00 0.45 0.45 90 1015.8
20260831024041 72 83 2.0 2.0 0.00 0.45 0.45 90 1015.9
20260831023539 72 101 1.0 1.0 0.00 0.45 0.45 90 1015.8
20260831023034 72 100 1.0 1.0 0.00 0.45 0.45 90 1015.6
20260831022533 72 119 3.0 3.0 0.00 0.45 0.45 90 1015.9
20260831022029 72 78 0.0 0.0 0.00 0.45 0.45 90 1015.6
20260831021527 72 124 1.0 1.0 0.00 0.45 0.45 90 1015.6
20260831021024 72 217 2.0 3.0 0.00 0.45 0.45 90 1015.6
20260831020519 72 131 3.0 3.0 0.00 0.45 0.45 90 1015.6
20260831020014 72 79 1.0 1.0 0.00 0.45 0.45 90 1015.7
20260831015509 72 90 3.0 6.0 0.00 0.45 0.45 90 1015.8
20260831015004 72 196 3.0 3.0 0.00 0.45 0.45 90 1015.4
20260831014458 72 150 1.0 2.0 0.00 0.45 0.45 90 1015.4
20260831013954 72 39 1.0 1.0 0.00 0.45 0.45 90 1015.6
20260831013450 72 143 3.0 3.0 0.00 0.45 0.45 90 1015.8
20260831012944 72 266 2.0 2.0 0.00 0.45 0.45 90 1015.9
20260831012439 72 158 4.0 6.0 0.00 0.45 0.45 90 1016.1
20260831011938 72 177 2.0 6.0 0.00 0.45 0.45 91 1015.8
20260831011433 72 98 2.0 2.0 0.00 0.45 0.45 91 1015.7
20260831010930 72 191 2.0 2.0 0.00 0.45 0.45 91 1015.4
20260831010424 72 93 3.0 6.0 0.00 0.45 0.45 91 1015.3
20260831005919 72 242 1.0 2.0 0.00 0.45 0.45 91 1015.2
20260831005415 72 79 1.0 2.0 0.00 0.45 0.45 91 1015.1
20260831004909 72 172 3.0 5.0 0.00 0.45 0.45 91 1014.9
20260831004406 72 190 1.0 2.0 0.00 0.45 0.45 91 1015.2
20260831003901 72 102 1.0 1.0 0.00 0.45 0.45 91 1014.9
20260831003357 72 251 5.0 7.0 0.00 0.45 0.45 91 1014.7
20260831002857 72 93 1.0 1.0 0.00 0.45 0.45 91 1014.9
20260831002356 72 75 1.0 1.0 0.00 0.45 0.45 91 1014.7
20260831001851 72 143 2.0 3.0 0.00 0.45 0.45 91 1014.7
20260831001351 72 95 0.0 1.0 0.00 0.45 0.45 91 1014.8
20260831000849 72 162 2.0 3.0 0.00 0.45 0.45 91 1014.9
20260831000344 73 94 2.0 2.0 0.00 0.45 0.45 91 1014.5
20260830235842 73 113 2.0 2.0 0.00 0.45 0.45 90 1014.7
20260830235337 73 90 1.0 1.0 0.00 0.45 0.45 90 1014.4
20260830234833 73 158 3.0 3.0 0.00 0.45 0.45 90 1014.5
20260830234328 73 86 0.0 0.0 0.00 0.45 0.45 89 1014.3
20260830233824 73 26 3.0 3.0 0.00 0.45 0.45 89 1014.5
20260830233319 73 135 2.0 3.0 0.00 0.45 0.45 89 1014.8
20260830232815 73 79 1.0 1.0 0.00 0.45 0.45 89 1014.9
20260830232310 73 152 1.0 1.0 0.00 0.45 0.45 90 1014.9
20260830231806 73 139 1.0 2.0 0.00 0.45 0.45 90 1014.9
20260830231301 73 79 1.0 2.0 0.00 0.45 0.45 91 1014.8
20260830230755 73 27 0.0 1.0 0.00 0.45 0.45 91 1014.8
20260830230251 73 75 1.0 1.0 0.00 0.45 0.45 91 1014.7
20260830225750 73 128 1.0 2.0 0.00 0.45 0.45 91 1014.4
20260830225245 73 99 1.0 1.0 0.00 0.45 0.45 91 1014.6
20260830224744 73 147 3.0 3.0 0.00 0.45 0.45 91 1014.6
20260830224240 73 98 1.0 1.0 0.00 0.45 0.45 91 1014.7
20260830223736 73 166 2.0 6.0 0.00 0.45 0.45 91 1014.8
20260830223232 73 88 1.0 1.0 0.00 0.45 0.45 91 1015.0
20260830222726 73 166 3.0 5.0 0.00 0.45 0.45 91 1015.0
20260830222222 73 211 3.0 3.0 0.00 0.45 0.45 91 1015.0
20260830221717 73 164 2.0 2.0 0.00 0.45 0.45 91 1014.9
20260830221214 73 129 2.0 2.0 0.00 0.45 0.45 91 1015.0
20260830220703 73 90 1.0 1.0 0.00 0.45 0.45 91 1014.9
20260830220202 73 97 1.0 2.0 0.00 0.45 0.45 91 1015.0
20260830215701 73 178 3.0 5.0 0.00 0.45 0.45 90 1015.0
20260830215156 73 62 1.0 1.0 0.00 0.45 0.45 91 1014.8
20260830214651 73 82 1.0 1.0 0.00 0.45 0.45 91 1015.0
20260830214145 73 147 2.0 2.0 0.00 0.45 0.45 90 1015.1
20260830213644 73 155 4.0 5.0 0.00 0.45 0.45 90 1015.0
20260830213140 73 254 4.0 5.0 0.00 0.45 0.45 90 1014.9
20260830212636 73 119 3.0 5.0 0.00 0.45 0.45 89 1014.7
20260830212131 74 274 5.0 6.0 0.00 0.45 0.45 88 1014.9
20260830211626 74 203 2.0 2.0 0.00 0.45 0.45 87 1015.0
20260830211125 74 230 2.0 3.0 0.00 0.45 0.45 87 1014.8
20260830210621 74 315 4.0 6.0 0.00 0.45 0.45 87 1015.0
20260830210120 74 120 1.0 1.0 0.00 0.45 0.45 87 1014.7
20260830205617 74 69 2.0 3.0 0.00 0.45 0.45 86 1015.0
20260830205113 74 160 2.0 3.0 0.00 0.45 0.45 86 1014.7
20260830204612 74 197 3.0 5.0 0.00 0.45 0.45 86 1014.8
20260830204111 74 218 6.0 9.0 0.00 0.45 0.45 85 1014.5
20260830203608 75 227 5.0 8.0 0.00 0.45 0.45 85 1014.5
20260830203107 75 111 1.0 2.0 0.00 0.45 0.45 84 1014.7
20260830202602 75 241 5.0 9.0 0.00 0.45 0.45 83 1014.8
20260830202058 75 301 3.0 5.0 0.00 0.45 0.45 83 1014.8
20260830201557 76 305 4.0 6.0 0.00 0.45 0.45 82 1014.8
20260830201052 76 184 2.0 2.0 0.00 0.45 0.45 82 1014.8
20260830200548 77 149 3.0 5.0 0.00 0.45 0.45 81 1014.8
20260830200046 77 321 3.0 5.0 0.00 0.45 0.45 80 1014.8
20260830195543 78 212 6.0 9.0 0.00 0.45 0.45 79 1015.0
20260830195040 78 212 6.0 8.0 0.00 0.45 0.45 78 1015.1
20260830194540 78 66 5.0 7.0 0.00 0.45 0.45 77 1014.9
20260830194039 79 221 3.0 3.0 0.00 0.45 0.45 75 1014.9
20260830193539 79 114 3.0 6.0 0.00 0.45 0.45 75 1014.9
20260830193034 80 101 1.0 2.0 0.00 0.45 0.45 75 1014.9
20260830192530 80 117 5.0 7.0 0.00 0.45 0.45 74 1015.0
20260830192029 80 207 6.0 7.0 0.00 0.45 0.45 73 1015.0
20260830191525 80 274 4.0 6.0 0.00 0.45 0.45 73 1014.8
20260830191020 80 236 3.0 6.0 0.00 0.45 0.45 72 1014.7
20260830190515 81 150 3.0 5.0 0.00 0.45 0.45 71 1014.5
20260830190011 82 103 4.0 7.0 0.00 0.45 0.45 69 1014.7
20260830185504 81 106 7.0 11.0 0.00 0.45 0.45 69 1014.7
20260830185000 81 215 6.0 8.0 0.00 0.45 0.45 70 1014.5
20260830184459 81 208 5.0 7.0 0.00 0.45 0.45 70 1014.6
20260830183953 82 273 5.0 8.0 0.00 0.45 0.45 69 1014.8
20260830183448 83 302 4.0 8.0 0.00 0.45 0.45 68 1014.3
20260830182944 84 260 5.0 7.0 0.00 0.45 0.45 66 1014.6
20260830182439 84 96 1.0 1.0 0.00 0.45 0.45 69 1014.3
20260830181935 83 173 3.0 3.0 0.00 0.45 0.45 68 1014.1
20260830181431 83 285 5.0 6.0 0.00 0.45 0.45 66 1014.0
20260830180925 84 256 3.0 5.0 0.00 0.45 0.45 66 1014.0
20260830180425 84 189 4.0 7.0 0.00 0.45 0.45 64 1013.9
20260830175924 86 283 3.0 5.0 0.00 0.45 0.45 63 1014.1
20260830175423 86 279 3.0 5.0 0.00 0.45 0.45 62 1014.0
20260830174919 86 327 2.0 3.0 0.00 0.45 0.45 62 1013.8
20260830174414 86 266 6.0 9.0 0.00 0.45 0.45 63 1013.8
20260830173910 86 123 5.0 6.0 0.00 0.45 0.45 63 1013.8
20260830173405 86 92 2.0 3.0 0.00 0.45 0.45 63 1014.0
20260830172901 86 306 6.0 7.0 0.00 0.45 0.45 64 1013.6
20260830172357 86 168 6.0 8.0 0.00 0.45 0.45 64 1014.0
20260830171852 86 250 5.0 7.0 0.00 0.45 0.45 65 1013.8
20260830171348 85 220 3.0 5.0 0.00 0.45 0.45 65 1013.8
20260830170843 85 1 4.0 6.0 0.00 0.45 0.45 66 1013.7
20260830170342 86 214 3.0 5.0 0.00 0.45 0.45 67 1013.9
20260830165840 86 100 2.0 3.0 0.00 0.45 0.45 67 1014.1
20260830165337 85 236 5.0 6.0 0.00 0.45 0.45 66 1014.1
20260830164833 85 113 4.0 6.0 0.00 0.45 0.45 65 1014.1
20260830164328 84 115 5.0 6.0 0.00 0.45 0.45 69 1014.1
20260830163825 84 221 4.0 6.0 0.00 0.45 0.45 68 1014.0
20260830163320 84 83 2.0 3.0 0.00 0.45 0.45 69 1013.9
20260830162815 83 116 4.0 6.0 0.00 0.45 0.45 70 1014.5
20260830162311 83 163 3.0 3.0 0.00 0.45 0.45 69 1014.4
20260830161806 82 29 3.0 5.0 0.00 0.45 0.45 71 1014.3
20260830161305 82 215 4.0 8.0 0.00 0.45 0.45 71 1014.3
20260830160801 82 76 1.0 1.0 0.00 0.45 0.45 73 1014.4
20260830160301 82 288 3.0 3.0 0.00 0.45 0.45 71 1014.6
20260830155751 82 96 2.0 2.0 0.00 0.45 0.45 72 1014.6
20260830155248 81 84 1.0 1.0 0.00 0.45 0.45 73 1014.6
20260830154748 80 125 4.0 7.0 0.00 0.45 0.45 72 1014.6
20260830154243 80 149 2.0 2.0 0.00 0.45 0.45 75 1014.9
20260830153740 80 70 2.0 3.0 0.00 0.45 0.45 76 1014.7
20260830153235 80 130 2.0 3.0 0.00 0.45 0.45 75 1014.6
20260830152733 80 72 2.0 3.0 0.00 0.45 0.45 77 1014.5
20260830152228 79 90 1.0 2.0 0.00 0.45 0.45 79 1014.6
20260830151723 78 158 2.0 2.0 0.00 0.45 0.45 78 1014.5
20260830151222 78 243 2.0 3.0 0.00 0.45 0.45 79 1014.7
20260830150717 77 358 3.0 5.0 0.00 0.45 0.45 78 1014.6
20260830150211 77 133 3.0 5.0 0.00 0.45 0.45 80 1014.5
20260830145706 76 68 5.0 8.0 0.00 0.45 0.45 80 1014.2
20260830145201 76 200 3.0 5.0 0.00 0.45 0.45 81 1014.4
20260830144656 76 137 2.0 3.0 0.00 0.45 0.45 81 1014.5
20260830144152 75 113 2.0 2.0 0.00 0.45 0.45 83 1014.5
20260830143648 75 201 4.0 6.0 0.00 0.45 0.45 84 1014.4
20260830143146 74 99 1.0 1.0 0.00 0.45 0.45 86 1014.6
20260830142641 73 164 4.0 6.0 0.00 0.45 0.45 85 1014.7
20260830142136 72 109 3.0 6.0 0.00 0.45 0.45 87 1014.8